Regional Weather Roundup
Issued by NWS Little Rock, AR

Home | Current Version | Previous Version | Text Only | Print | Product List | Glossary Off
Versions: 1 2 3 4 5 6 7 8 9 10 11 12 13 14 15 16 17 18 19 20 21 22 23 24 25

708
ASUS44 KLZK 220905
RWRLZK

WEATHER ROUNDUP FOR ARKANSAS
NATIONAL WEATHER SERVICE LITTLE ROCK AR
400 AM CDT FRI MAY 22 2015

NOTE: "FAIR" INDICATES FEW OR NO CLOUDS BELOW 12,000 FEET WITH NO
SIGNIFICANT WEATHER AND/OR OBSTRUCTIONS TO VISIBILITY.

ARZ001-003-010-029-221000-
NORTHWEST ARKANSAS

CITY           SKY/WX    TMP DP  RH WIND       PRES   REMARKS
FAYETTEVILLE   MOCLDY    45  45 100 CALM      30.21S FOG
FORT SMITH     CLOUDY    56  51  84 E3        30.19S
HARRISON       CLEAR     44  43  96 CALM      30.23R
BENTONVILLE    PTCLDY   N/A N/A N/A CALM      30.21R
ROGERS         CLEAR     48  47  96 E5        30.22S
SILOAM SPGS    PTCLDY    48  41  76 CALM      30.22R
HIGHFILL       PTCLDY    47  45  93 CALM      30.21
$$

ARZ004-005-016-221000-
NORTH CENTRAL ARKANSAS

CITY           SKY/WX    TMP DP  RH WIND       PRES   REMARKS
BATESVILLE     PTCLDY    46  45  93 CALM      30.24R
FLIPPIN        CLEAR     46  45  93 CALM      30.22R
MTN HOME       CLEAR     48  46  93 CALM      30.22R
$$

ARZ040-041-221000-
WEST CENTRAL ARKANSAS

CITY           SKY/WX    TMP DP  RH WIND       PRES   REMARKS
MENA           CLOUDY    52  52 100 CALM      30.21R
MOUNT IDA      CLOUDY    52  50  93 CALM      30.19R
$$

ARZ009-017-025-026-028-221000-
NORTHEAST ARKANSAS

CITY           SKY/WX    TMP DP  RH WIND       PRES   REMARKS
CORNING          N/A     48  48 100 N5        30.24S
JONESBORO      CLEAR     45  44  97 CALM      30.23R
NEWPORT        CLEAR     51  49  93 CALM      30.25R
WALNUT RIDGE   CLEAR     48  45  87 NW3       30.23R
BLYTHEVILLE    CLEAR     47  46  97 NE5       30.23S
$$

ARZ022-023-033-042-044-221000-
CENTRAL ARKANSAS

CITY           SKY/WX    TMP DP  RH WIND       PRES   REMARKS
LITTLE ROCK    PTCLDY    52  48  86 CALM      30.24R
N LITTLE ROCK    N/A     50  50 100 E2        30.24R
JACKSONVILLE   CLEAR     48  47  96 CALM      30.22F
HOT SPRINGS    MOCLDY    52  49  89 CALM      30.23R
RUSSELLVILLE   PTCLDY    53  50  89 E5        30.23R
CLINTON        FAIR      46  46 100 CALM      30.26R
$$

ARZ036-221000-
EAST ARKANSAS

CITY           SKY/WX    TMP DP  RH WIND       PRES   REMARKS
WEST MEMPHIS   CLEAR     48  47  96 CALM      30.22R
$$

ARZ050-053-066-070-073-221000-
SOUTHWEST ARKANSAS

CITY           SKY/WX    TMP DP  RH WIND       PRES   REMARKS
ARKADELPHIA    FAIR      53  52  97 NE5       30.23S
CAMDEN         CLEAR     48  45  87 CALM      30.23R
TEXARKANA      MOCLDY    53  52  96 CALM      30.19S
EL DORADO      CLEAR     50  48  93 N3        30.21R
DE QUEEN       CLOUDY    54  53  97 E5        30.18S
$$

ARZ056-057-069-221000-
SOUTHEAST ARKANSAS

CITY           SKY/WX    TMP DP  RH WIND       PRES   REMARKS
PINE BLUFF     PTCLDY    49  48  97 SW3       30.23R
STUTTGART      CLEAR     52  46  82 CALM      30.23S
MONTICELLO     CLEAR     48  46  93 CALM      30.21S

$$





USA.gov is the U.S. government's official web portal to all federal, state and local government web resources and services.